Las Vegas, NV

10:10 PM PDT on April 24, 2018 (GMT -0700)
McCarran International

Weather History for KLAS - September, 2013

Change the Weather History Date:

Thursday, September 5, 2013

  Actual Average Record
Temperature  
Mean Temperature 90 °F 87 °F  
Max Temperature 102 °F 98 °F 109 °F (1955)
Min Temperature 77 °F 75 °F 52 °F (1940)
Degree Days  
Heating Degree Days 0 0  
Month to date heating degree days 0 0  
Since 1 July heating degree days 0 0  
Cooling Degree Days 25 22  
Month to date cooling degree days 120 111  
Year to date cooling degree days 3292 2960  
Growing Degree Days 40 (Base 50)    
Moisture  
Dew Point 57 °F    
Average Humidity 40    
Maximum Humidity 60    
Minimum Humidity 19    
Precipitation  
Precipitation 0.00 in 0.01 in 0.16 in (1974)
Month to date precipitation 0.01 0.05  
Year to date precipitation 1.20 2.86  
Snow  
Snow 0.00 in 0.00 in 0.00 in ()
Month to date snowfall 0.0 0.0  
Since 1 July snowfall 0.0 0.0  
Since 1 September snowfall 0.0 0.0  
Snow Depth 0.00 in    
Sea Level Pressure  
Sea Level Pressure 29.84 in    
Wind  
Wind Speed 7 mph (SSW)    
Max Wind Speed 21 mph    
Max Gust Speed 25 mph    
Visibility 10 miles    
Events Thunderstorm    
T = Trace of Precipitation, MM = Missing Value Source: NWS Daily Summary

Daily Weather History Graph

Daily Weather History Graph

Search for Another Location

Airport or City:

Astronomy

Sep. 05, 2013 Rise Set
Actual Time 6:15 AM PDT 7:02 PM PDT
Civil Twilight 5:49 AM PDT 7:28 PM PDT
Nautical Twilight 5:18 AM PDT 7:58 PM PDT
Astronomical Twilight 4:47 AM PDT 8:30 PM PDT
Moon 6:29 AM PDT (9/5) 6:59 PM PDT (9/5)
Length of Visible Light 13h 38m
Length of Day
12h 46m
New Moon, 0% of the Moon is Illuminated
Sep 5
New Moon
Sep 12
First Quarter
Sep 19
Full
Sep 26
Last Quarter
Oct 4
New

Hourly Weather History & Observations

Time (PDT) Temp. Heat Index Dew Point Humidity Pressure Visibility Wind Dir Wind Speed Gust Speed Precip Events Conditions
12:56 AM 80.1 °F 81.5 °F 63.0 °F 56% 29.84 in 10.0 mi SSW 6.9 mph - N/A   Partly Cloudy
1:56 AM 78.1 °F - 61.0 °F 56% 29.83 in 10.0 mi SSW 8.1 mph - N/A   Partly Cloudy
2:56 AM 78.1 °F - 61.0 °F 56% 29.85 in 10.0 mi SSW 6.9 mph - N/A   Partly Cloudy
3:56 AM 77.0 °F - 63.0 °F 62% 29.86 in 10.0 mi SW 4.6 mph - N/A   Partly Cloudy
4:56 AM 77.0 °F - 63.0 °F 62% 29.87 in 10.0 mi WSW 5.8 mph - N/A   Partly Cloudy
5:56 AM 78.1 °F - 61.0 °F 56% 29.89 in 10.0 mi SW 5.8 mph - N/A   Partly Cloudy
6:56 AM 79.0 °F - 61.0 °F 54% 29.90 in 10.0 mi SSW 5.8 mph - N/A   Partly Cloudy
7:56 AM 81.0 °F 81.7 °F 61.0 °F 50% 29.91 in 10.0 mi South 8.1 mph - N/A   Partly Cloudy
8:56 AM 84.9 °F 84.4 °F 59.0 °F 41% 29.91 in 10.0 mi South 4.6 mph - N/A   Partly Cloudy
9:56 AM 87.1 °F 85.9 °F 57.0 °F 36% 29.92 in 10.0 mi SSE 4.6 mph - N/A   Partly Cloudy
10:56 AM 89.1 °F 87.3 °F 55.9 °F 32% 29.91 in 10.0 mi Variable 3.5 mph - N/A   Scattered Clouds
11:56 AM 91.9 °F 90.3 °F 55.9 °F 30% 29.89 in 10.0 mi SE 3.5 mph - N/A   Scattered Clouds
12:56 PM 95.0 °F 93.4 °F 55.9 °F 27% 29.87 in 10.0 mi Variable 3.5 mph - N/A   Scattered Clouds
1:56 PM 97.0 °F 95.7 °F 57.0 °F 26% 29.84 in 10.0 mi Calm Calm - N/A   Scattered Clouds
2:56 PM 99.0 °F 97.3 °F 55.0 °F 23% 29.78 in 10.0 mi South 9.2 mph - N/A   Scattered Clouds
3:56 PM 100.9 °F - 51.1 °F 19% 29.76 in 10.0 mi South 15.0 mph 20.7 mph N/A   Scattered Clouds
4:56 PM 99.0 °F - 52.0 °F 21% 29.78 in 10.0 mi SSW 18.4 mph 25.3 mph N/A   Mostly Cloudy
5:56 PM 99.0 °F - 52.0 °F 21% 29.74 in 10.0 mi SSW 10.4 mph - N/A   Mostly Cloudy
6:14 PM 96.8 °F 94.4 °F 53.6 °F 23% 29.85 in 10.0 mi SSW 13.8 mph 25.3 mph N/A Thunderstorm Thunderstorm
6:56 PM 97.0 °F 94.6 °F 53.1 °F 23% 29.78 in 10.0 mi Variable 4.6 mph - N/A   Mostly Cloudy
7:56 PM 93.0 °F 91.1 °F 55.0 °F 28% 29.79 in 10.0 mi South 6.9 mph - N/A   Mostly Cloudy
8:56 PM 93.0 °F 91.4 °F 55.9 °F 29% 29.77 in 10.0 mi South 8.1 mph - N/A   Scattered Clouds
9:56 PM 91.0 °F 89.2 °F 55.9 °F 30% 29.78 in 10.0 mi SSW 9.2 mph - N/A   Partly Cloudy
10:56 PM 89.1 °F 87.3 °F 55.9 °F 32% 29.79 in 10.0 mi South 6.9 mph - N/A   Partly Cloudy
11:56 PM 87.1 °F 85.9 °F 57.0 °F 36% 29.81 in 10.0 mi SSW 9.2 mph - N/A   Clear